[[{"header":{"parameterUnit":"m.s-1","parameterCategory":1,"la1":30.2991,"la2":30.254,"lo1":-89.0895,"lo2":-89.0444,"dy":0.0017,"dx":0.0017,"nx":28,"ny":28,"refTime":"2025-02-24T09:00:00:Z","depth":0,"parameterNumber":2,"parameterNumberName":"U-component_of_WINDS"},"data":[0,0,0,0,0,0,0,0,0,0,0,0,0,0,0,0,0,0,0,0,0,0,0,0,0,0,0,0,0,0,0,0,0,0,0,0,0,0,0,0,0,0,0,0,0,0,0,0,0,0,0,0,0,0,0,0,0,0,1.2662,1.2662,0,1.2672,1.2672,1.2672,1.2645,1.2644,1.2643,1.2643,1.2654,1.2655,1.2656,0,0,0,0,0,0,0,0,0,0,0,0,0,1.262,1.2621,1.2662,1.2662,1.2662,1.2672,1.2672,1.2672,1.2645,1.2644,1.2643,1.2642,1.2654,1.2655,1.2656,0,0,0,0,0,0,0,0,0,0,0,0,0,1.2635,1.2621,1.2661,1.2649,1.2649,1.2672,1.2672,1.2672,1.2645,1.2644,1.2643,1.2642,1.2653,1.2655,1.2656,1.2692,0,0,1.2662,1.2662,0,0,0,0,0,0,0,0,1.2634,1.2637,1.2651,1.265,1.2649,1.2656,1.2662,1.2679,1.2646,1.2647,1.2643,1.2641,1.2656,1.2657,1.2662,1.2693,1.2693,1.2662,1.2663,1.2663,1.2664,0,0,0,0,0,0,0,1.2633,1.2636,1.2666,1.2651,1.265,1.2644,1.2645,1.2665,1.2658,1.2646,1.2645,1.2646,1.2655,1.266,1.2662,1.2693,1.2662,1.2663,1.2664,1.2665,1.2756,1.2757,0,0,0,0,0,0,1.2634,1.2635,1.2665,1.2666,1.2638,1.2646,1.2647,1.2655,1.2658,1.2657,1.2647,1.2645,1.2658,1.266,1.2662,1.2705,1.2663,1.2665,1.2666,1.2755,1.2756,1.2758,0,0,0,0,0,0,1.2633,1.2636,1.2665,1.265,1.2653,1.2648,1.2658,1.2656,1.2661,1.2658,1.2657,1.2654,1.2657,1.266,1.2685,1.2705,1.2666,1.2667,1.2753,1.2755,1.2757,1.2791,0,0,0,0,0,0,1.2632,1.2636,1.2649,1.2651,1.2654,1.2687,1.2659,1.2657,1.2664,1.2661,1.2664,1.2664,1.2656,1.2683,1.2687,1.2707,1.2668,1.2751,1.2754,1.2756,1.2789,1.2795,1.28,0,0,0,0,0,1.263,1.2658,1.265,1.2654,1.267,1.2688,1.2691,1.2681,1.2666,1.2679,1.2678,1.2664,1.2703,1.2686,1.269,1.2711,1.275,1.2753,1.2756,1.2786,1.2793,1.28,0,0,0,0,0,0,1.2659,1.2658,1.2649,1.2678,1.2684,1.2684,1.27,1.2689,1.2699,1.2696,1.2685,1.2686,1.2714,1.2715,1.2696,1.2747,1.2724,1.2728,1.2745,1.2752,1.2757,1.2757,1.267,0,0,0,0,0,1.2669,1.2684,1.2682,1.2708,1.2711,1.2706,1.2713,1.2706,1.2711,1.2713,1.2713,1.272,1.2733,1.2742,1.2755,1.2789,1.279,1.2805,1.2811,1.2815,1.2819,1.2839,1.2846,1.2769,1.2769,1.2768,0,0,1.269,1.2691,1.2701,1.2714,1.2717,1.2733,1.2708,1.2725,1.2737,1.2716,1.274,1.2741,1.2747,1.2777,1.279,1.2779,1.2841,1.2819,1.2823,1.2824,1.2843,1.285,1.2857,1.2771,1.277,1.277,0,0,1.2735,1.2737,1.276,1.2764,1.2769,1.2766,1.2771,1.2773,1.2773,1.2797,1.2782,1.2796,1.282,1.2825,1.2831,1.2881,1.2868,1.2885,1.2914,1.2933,1.2939,1.2945,1.2963,1.297,1.2889,1.2889,1.2889,0,1.276,1.2783,1.2773,1.2792,1.2799,1.278,1.2804,1.2808,1.2818,1.2824,1.281,1.2841,1.2843,1.2875,1.2888,1.2892,1.2899,1.2885,1.2939,1.2945,1.2949,1.2967,1.2974,1.2891,1.2891,1.2891,1.289,0,1.2814,1.283,1.2848,1.2858,1.2867,1.2888,1.2882,1.2892,1.2884,1.2882,1.2908,1.2911,1.2924,1.2931,1.2924,1.2963,1.2955,1.2941,1.2918,1.2959,1.2976,1.2982,1.2894,1.2893,1.2893,1.2892,0,0,1.2877,1.2882,1.2889,1.2894,1.2899,1.2912,1.2933,1.2946,1.2956,1.2963,1.2981,1.3003,1.299,1.2996,1.299,1.3006,1.3047,1.299,1.299,1.3001,1.3092,1.3103,1.3111,1.3039,1.304,1.3041,1.3091,0,1.2923,1.2958,1.2951,1.2986,1.3002,1.2986,1.3004,1.301,1.3009,1.3023,1.3022,1.3038,1.3019,1.3023,1.3039,1.3039,1.3065,1.3035,1.3056,1.3057,1.3056,1.3119,1.3131,1.3178,1.3098,1.3099,1.31,0,1.2981,1.2991,1.3028,1.3032,1.3039,1.3055,1.3068,1.3081,1.3088,1.3086,1.3094,1.3085,1.3107,1.3083,1.3114,1.3094,1.3102,1.3104,1.3105,1.3107,1.3081,1.3124,1.3193,1.32,1.3109,1.3109,1.3108,0,1.3024,1.3047,1.3073,1.3077,1.3083,1.3095,1.3098,1.3104,1.3113,1.3124,1.313,1.3143,1.315,1.3162,1.3156,1.3139,1.3189,1.3164,1.3189,1.3189,1.32,1.3199,1.3272,1.3204,1.3204,1.3204,1.3204,0,1.3076,1.31,1.3093,1.3109,1.3135,1.3126,1.3153,1.3154,1.316,1.3176,1.3163,1.3179,1.317,1.3186,1.3182,1.3209,1.3212,1.3212,1.3211,1.3214,1.3214,1.3219,1.3216,1.3206,1.3206,1.3205,1.3205,0,1.313,1.3126,1.3153,1.3156,1.3157,1.3177,1.318,1.3195,1.3194,1.3215,1.3219,1.3217,1.3235,1.3231,1.325,1.3248,1.3282,1.3276,1.328,1.3278,1.3303,1.3301,1.3382,1.3393,1.3318,1.3319,1.3319,0,1.3163,1.3181,1.3187,1.3197,1.3201,1.3217,1.3226,1.3219,1.3229,1.324,1.3254,1.3271,1.3284,1.3313,1.3314,1.3329,1.3324,1.3351,1.3326,1.3329,1.3325,1.3325,1.3327,1.3356,1.3357,1.3358,1.3358,0,1.3224,1.3222,1.3235,1.3249,1.326,1.327,1.328,1.3289,1.3282,1.3295,1.3313,1.3323,1.3343,1.336,1.3375,1.3379,1.3368,1.3366,1.3373,1.3376,1.3378,1.3378,1.3294,1.3365,1.3364,1.3363,1.3363,1.3363,1.3269,1.3285,1.3292,1.3308,1.3314,1.3323,1.3338,1.3339,1.3354,1.3369,1.3364,1.3386,1.3394,1.3412,1.3417,1.3434,1.3424,1.3433,1.3436,1.3438,1.3442,1.3375,1.3437,1.3437,1.3437,1.3436,1.3436,0,1.333,1.3334,1.3349,1.3362,1.3375,1.3364,1.3374,1.3386,1.3404,1.3413,1.3426,1.3448,1.3465,1.3467,1.3483,1.3497,1.3492,1.3501,1.35,1.3502,1.345,1.3443,1.3505,1.3505,1.3505,1.3505,1.3505,1.3505,1.3363,1.3389,1.3388,1.3418,1.3422,1.3442,1.3449,1.3458,1.3464,1.3489,1.3503,1.3505,1.3511,1.3528,1.3544,1.3544,1.3551,1.3562,1.3561,1.3512,1.3505,1.3499,1.3492,1.3564,1.3564,1.3612,1.3612,1.3612]},{"header":{"parameterUnit":"m.s-1","parameterCategory":1,"la1":30.2991,"la2":30.254,"lo1":-89.0895,"lo2":-89.0444,"dy":0.0017,"dx":0.0017,"nx":28,"ny":28,"refTime":"2025-02-24T09:00:00:Z","depth":0,"parameterNumber":3,"parameterNumberName":"V-component_of_WINDS"},"data":[0,0,0,0,0,0,0,0,0,0,0,0,0,0,0,0,0,0,0,0,0,0,0,0,0,0,0,0,0,0,0,0,0,0,0,0,0,0,0,0,0,0,0,0,0,0,0,0,0,0,0,0,0,0,0,0,0,0,-3.1953,-3.1954,0,-3.2092,-3.2093,-3.2095,-3.2105,-3.2104,-3.2102,-3.2101,-3.2241,-3.2246,-3.2251,0,0,0,0,0,0,0,0,0,0,0,0,0,-3.1693,-3.1698,-3.1952,-3.1954,-3.1956,-3.2092,-3.2093,-3.2095,-3.2105,-3.2103,-3.2102,-3.21,-3.2239,-3.2245,-3.2251,0,0,0,0,0,0,0,0,0,0,0,0,0,-3.1817,-3.17,-3.1952,-3.1977,-3.1981,-3.2091,-3.2094,-3.2096,-3.2106,-3.2103,-3.2101,-3.2099,-3.2237,-3.2244,-3.2252,-3.2346,0,0,-3.2276,-3.2279,0,0,0,0,0,0,0,0,-3.181,-3.1826,-3.1972,-3.1976,-3.198,-3.2079,-3.2054,-3.218,-3.2106,-3.2058,-3.21,-3.2098,-3.2188,-3.22,-3.2231,-3.2352,-3.2358,-3.2276,-3.2281,-3.2284,-3.2287,0,0,0,0,0,0,0,-3.1801,-3.182,-3.2007,-3.1974,-3.1979,-3.1981,-3.1996,-3.2077,-3.2134,-3.2062,-3.2063,-3.208,-3.219,-3.2224,-3.2234,-3.2361,-3.2276,-3.2283,-3.2288,-3.2291,-3.2567,-3.257,0,0,0,0,0,0,-3.1788,-3.1813,-3.2003,-3.2012,-3.1887,-3.1988,-3.2004,-3.2049,-3.2134,-3.2144,-3.2082,-3.208,-3.2212,-3.2225,-3.2239,-3.2356,-3.2284,-3.2292,-3.2296,-3.2564,-3.2568,-3.2571,0,0,0,0,0,0,-3.1782,-3.1805,-3.1997,-3.1913,-3.1937,-3.1995,-3.2045,-3.2053,-3.2087,-3.2148,-3.2158,-3.2106,-3.221,-3.2229,-3.232,-3.2361,-3.2295,-3.2302,-3.2561,-3.2565,-3.2569,-3.2589,0,0,0,0,0,0,-3.1775,-3.1803,-3.1839,-3.1913,-3.1942,-3.2076,-3.2048,-3.2058,-3.21,-3.2099,-3.2173,-3.2183,-3.221,-3.2308,-3.2328,-3.237,-3.2308,-3.2558,-3.2563,-3.2568,-3.2585,-3.2593,-3.26,0,0,0,0,0,-3.1766,-3.1839,-3.1841,-3.1864,-3.1989,-3.2078,-3.2095,-3.2124,-3.2104,-3.2141,-3.2181,-3.2181,-3.2353,-3.2318,-3.2339,-3.2385,-3.2555,-3.2562,-3.2567,-3.2581,-3.2592,-3.26,0,0,0,0,0,0,-3.1767,-3.1849,-3.1852,-3.1952,-3.2008,-3.208,-3.2128,-3.2134,-3.2197,-3.2193,-3.2226,-3.2243,-3.2334,-3.2368,-3.2327,-3.2481,-3.2452,-3.2463,-3.2455,-3.2465,-3.2473,-3.2463,-3.2315,0,0,0,0,0,-3.1779,-3.1845,-3.1913,-3.1994,-3.2022,-3.207,-3.211,-3.2128,-3.2188,-3.2211,-3.2258,-3.2315,-3.2382,-3.2425,-3.249,-3.259,-3.2606,-3.2632,-3.264,-3.2646,-3.2655,-3.2711,-3.2723,-3.259,-3.259,-3.259,0,0,-3.1804,-3.1857,-3.1896,-3.1995,-3.2041,-3.2109,-3.209,-3.2162,-3.2213,-3.2222,-3.2312,-3.2348,-3.2414,-3.251,-3.2554,-3.2542,-3.2695,-3.2653,-3.2658,-3.2664,-3.2718,-3.2731,-3.2742,-3.2595,-3.2594,-3.2593,0,0,-3.1884,-3.1931,-3.2004,-3.2051,-3.2121,-3.2153,-3.217,-3.2242,-3.2266,-3.2357,-3.2366,-3.2426,-3.254,-3.2587,-3.2626,-3.2726,-3.2729,-3.2746,-3.2786,-3.2841,-3.2851,-3.2861,-3.2897,-3.2909,-3.2754,-3.2755,-3.2755,0,-3.1906,-3.201,-3.204,-3.2114,-3.2157,-3.217,-3.2244,-3.2287,-3.2375,-3.2405,-3.2389,-3.2534,-3.2579,-3.2687,-3.2712,-3.2742,-3.2764,-3.2738,-3.2847,-3.2857,-3.2866,-3.2901,-3.2915,-3.2756,-3.2756,-3.2756,-3.2756,0,-3.2034,-3.2105,-3.2156,-3.2241,-3.229,-3.2364,-3.2406,-3.2451,-3.2465,-3.2499,-3.2591,-3.2646,-3.2723,-3.2749,-3.2763,-3.286,-3.285,-3.284,-3.2812,-3.288,-3.2914,-3.2927,-3.2759,-3.2758,-3.2758,-3.2757,0,0,-3.2119,-3.2221,-3.224,-3.2279,-3.2358,-3.2413,-3.2487,-3.2563,-3.2603,-3.2662,-3.2725,-3.2823,-3.2815,-3.2859,-3.2878,-3.2926,-3.3002,-3.2911,-3.2913,-3.2927,-3.3113,-3.312,-3.3135,-3.3005,-3.3007,-3.301,-3.3108,0,-3.2209,-3.2342,-3.2372,-3.2486,-3.2553,-3.2566,-3.263,-3.2685,-3.2718,-3.2779,-3.2815,-3.2884,-3.2868,-3.2895,-3.2943,-3.2983,-3.304,-3.2976,-3.3064,-3.3066,-3.3048,-3.3153,-3.3161,-3.3251,-3.3121,-3.3123,-3.3125,0,-3.2332,-3.2396,-3.2517,-3.2588,-3.2617,-3.2675,-3.2748,-3.2806,-3.2868,-3.2889,-3.2939,-3.2954,-3.3031,-3.2998,-3.3105,-3.3061,-3.3098,-3.3123,-3.3128,-3.3138,-3.31,-3.3166,-3.328,-3.3294,-3.3146,-3.3144,-3.3143,0,-3.2383,-3.2499,-3.2587,-3.262,-3.2705,-3.2745,-3.2782,-3.2843,-3.2887,-3.2951,-3.298,-3.3051,-3.309,-3.3145,-3.3178,-3.3151,-3.3283,-3.3253,-3.3302,-3.3301,-3.333,-3.3328,-3.3452,-3.3352,-3.3352,-3.3352,-3.3352,0,-3.2481,-3.2554,-3.2612,-3.2666,-3.2749,-3.2783,-3.2864,-3.2901,-3.2955,-3.3016,-3.3031,-3.3088,-3.3128,-3.3191,-3.3217,-3.3302,-3.332,-3.3338,-3.3345,-3.3338,-3.3336,-3.3363,-3.3358,-3.3356,-3.3355,-3.3354,-3.3353,0,-3.2552,-3.2593,-3.269,-3.2763,-3.2783,-3.2841,-3.2903,-3.2956,-3.2989,-3.3067,-3.3087,-3.314,-3.3214,-3.3253,-3.3345,-3.3363,-3.3459,-3.3461,-3.3439,-3.3441,-3.3489,-3.3484,-3.3636,-3.3659,-3.3543,-3.3544,-3.3545,0,-3.2613,-3.267,-3.2749,-3.2792,-3.283,-3.2898,-3.2944,-3.298,-3.3027,-3.3103,-3.3147,-3.3223,-3.3285,-3.3404,-3.345,-3.3521,-3.3525,-3.3574,-3.3536,-3.3528,-3.3527,-3.3524,-3.353,-3.358,-3.3582,-3.3582,-3.3583,0,-3.2715,-3.2733,-3.2799,-3.2872,-3.2927,-3.2986,-3.3044,-3.3078,-3.3123,-3.3175,-3.3252,-3.3301,-3.3396,-3.3472,-3.3546,-3.3584,-3.3592,-3.3595,-3.361,-3.3604,-3.3589,-3.3599,-3.3458,-3.3591,-3.359,-3.359,-3.3589,-3.3589,-3.2784,-3.2836,-3.29,-3.2973,-3.3021,-3.3076,-3.313,-3.317,-3.3236,-3.3317,-3.3334,-3.3415,-3.3477,-3.3579,-3.3619,-3.3683,-3.3673,-3.3695,-3.3701,-3.3706,-3.3709,-3.3578,-3.3697,-3.3696,-3.3696,-3.3696,-3.3696,0,-3.2889,-3.2931,-3.2998,-3.308,-3.3137,-3.314,-3.3205,-3.3253,-3.3325,-3.3382,-3.3444,-3.3533,-3.3606,-3.3658,-3.3733,-3.3774,-3.378,-3.3793,-3.379,-3.3799,-3.3713,-3.3693,-3.3787,-3.3787,-3.3787,-3.3787,-3.3787,-3.3787,-3.295,-3.3039,-3.3064,-3.3176,-3.3218,-3.3299,-3.3336,-3.3387,-3.3433,-3.3532,-3.3593,-3.3627,-3.3683,-3.3762,-3.3829,-3.3842,-3.3869,-3.3882,-3.3896,-3.3815,-3.3805,-3.3796,-3.3777,-3.3888,-3.3888,-3.3977,-3.3978,-3.3979]}]]